Year,Month,Day,Hour,Minute,Value (Times are PST for temperature in C)
2014,11,16,00,00,-1.60
2014,11,16,00,01,-1.60
2014,11,16,00,02,-1.60
2014,11,16,00,03,-1.60
2014,11,16,00,04,-1.60
2014,11,16,00,05,-1.60
2014,11,16,00,06,-1.60
2014,11,16,00,07,-1.50
2014,11,16,00,08,-1.50
2014,11,16,00,09,-1.50
2014,11,16,00,10,-1.40
2014,11,16,00,11,-1.40
2014,11,16,00,12,-1.40
2014,11,16,00,13,-1.40
2014,11,16,00,14,-1.40
2014,11,16,00,15,-1.40
2014,11,16,00,16,-1.40
2014,11,16,00,17,-1.50
2014,11,16,00,18,-1.50
2014,11,16,00,19,-1.50
2014,11,16,00,20,-1.40
2014,11,16,00,21,-1.40
2014,11,16,00,22,-1.40
2014,11,16,00,23,-1.40
2014,11,16,00,24,-1.40
2014,11,16,00,25,-1.40
2014,11,16,00,26,-1.30
2014,11,16,00,27,-1.30
2014,11,16,00,28,-1.30
2014,11,16,00,29,-1.30
2014,11,16,00,30,-1.30
2014,11,16,00,31,-1.30
2014,11,16,00,32,-1.30
2014,11,16,00,33,-1.30
2014,11,16,00,34,-1.30
2014,11,16,00,35,-1.30
2014,11,16,00,36,-1.30
2014,11,16,00,37,-1.30
2014,11,16,00,38,-1.30
2014,11,16,00,39,-1.20
2014,11,16,00,40,-1.20
2014,11,16,00,41,-1.20
2014,11,16,00,42,-1.10
2014,11,16,00,43,-1.10
2014,11,16,00,44,-1.00
2014,11,16,00,45,-1.00
2014,11,16,00,46,-1.00
2014,11,16,00,47,-0.90
2014,11,16,00,48,-0.90
2014,11,16,00,49,-0.90
2014,11,16,00,50,-0.90
2014,11,16,00,51,-0.90
2014,11,16,00,52,-0.90
2014,11,16,00,53,-0.90
2014,11,16,00,54,-0.90
2014,11,16,00,55,-0.90
2014,11,16,00,56,-0.90
2014,11,16,00,57,-0.90
2014,11,16,00,58,-1.00
2014,11,16,00,59,-1.00
2014,11,16,01,00,-1.00
2014,11,16,01,01,-1.00
2014,11,16,01,02,-1.00
2014,11,16,01,03,-1.10
2014,11,16,01,04,-1.10
2014,11,16,01,05,-1.00
2014,11,16,01,06,-1.10
2014,11,16,01,07,-1.10
2014,11,16,01,08,-1.10
2014,11,16,01,09,-1.10
2014,11,16,01,10,-1.10
2014,11,16,01,11,-1.10
2014,11,16,01,12,-1.10
2014,11,16,01,13,-1.10
2014,11,16,01,14,-1.20
2014,11,16,01,15,-1.20
2014,11,16,01,16,-1.20
2014,11,16,01,17,-1.20
2014,11,16,01,18,-1.20
2014,11,16,01,19,-1.20
2014,11,16,01,20,-1.20
2014,11,16,01,21,-1.20
2014,11,16,01,22,-1.20
2014,11,16,01,23,-1.20
2014,11,16,01,24,-1.20
2014,11,16,01,25,-1.20
2014,11,16,01,26,-1.20
2014,11,16,01,27,-1.20
2014,11,16,01,28,-1.20
2014,11,16,01,29,-1.20
2014,11,16,01,30,-1.30
2014,11,16,01,31,-1.30
2014,11,16,01,32,-1.30
2014,11,16,01,33,-1.30
2014,11,16,01,34,-1.30
2014,11,16,01,35,-1.30
2014,11,16,01,36,-1.30
2014,11,16,01,37,-1.30
2014,11,16,01,38,-1.30
2014,11,16,01,39,-1.30
2014,11,16,01,40,-1.30
2014,11,16,01,41,-1.30
2014,11,16,01,42,-1.30
2014,11,16,01,43,-1.30
2014,11,16,01,44,-1.20
2014,11,16,01,45,-1.20
2014,11,16,01,46,-1.20
2014,11,16,01,47,-1.20
2014,11,16,01,48,-1.10
2014,11,16,01,49,-1.10
2014,11,16,01,50,-1.00
2014,11,16,01,51,-1.00
2014,11,16,01,52,-0.90
2014,11,16,01,53,-0.90
2014,11,16,01,54,-0.80
2014,11,16,01,55,-0.70
2014,11,16,01,56,-0.70
2014,11,16,01,57,-0.60
2014,11,16,01,58,-0.60
2014,11,16,01,59,-0.60
2014,11,16,02,00,-0.50
2014,11,16,02,01,-0.50
2014,11,16,02,02,-0.40
2014,11,16,02,03,-0.40
2014,11,16,02,04,-0.40
2014,11,16,02,05,-0.40
2014,11,16,02,06,-0.40
2014,11,16,02,07,-0.40
2014,11,16,02,08,-0.40
2014,11,16,02,09,-0.40
2014,11,16,02,10,-0.40
2014,11,16,02,11,-0.40
2014,11,16,02,12,-0.40
2014,11,16,02,13,-0.40
2014,11,16,02,14,-0.40
2014,11,16,02,15,-0.40
2014,11,16,02,16,-0.40
2014,11,16,02,17,-0.40
2014,11,16,02,18,-0.40
2014,11,16,02,19,-0.40
2014,11,16,02,20,-0.40
2014,11,16,02,21,-0.40
2014,11,16,02,22,-0.30
2014,11,16,02,23,-0.30
2014,11,16,02,24,-0.30
2014,11,16,02,25,-0.30
2014,11,16,02,26,-0.30
2014,11,16,02,27,-0.30
2014,11,16,02,28,-0.30
2014,11,16,02,29,-0.30
2014,11,16,02,30,-0.20
2014,11,16,02,31,-0.20
2014,11,16,02,32,-0.20
2014,11,16,02,33,-0.10
2014,11,16,02,34,-0.10
2014,11,16,02,35,0.00
2014,11,16,02,36,0.00
2014,11,16,02,37,0.10
2014,11,16,02,38,0.10
2014,11,16,02,39,0.10
2014,11,16,02,40,0.10
2014,11,16,02,41,0.20
2014,11,16,02,42,0.20
2014,11,16,02,43,0.20
2014,11,16,02,44,0.20
2014,11,16,02,45,0.20
2014,11,16,02,46,0.20
2014,11,16,02,47,0.20
2014,11,16,02,48,0.30
2014,11,16,02,49,0.30
2014,11,16,02,50,0.30
2014,11,16,02,51,0.30
2014,11,16,02,52,0.30
2014,11,16,02,53,0.30
2014,11,16,02,54,0.30
2014,11,16,02,55,0.30
2014,11,16,02,56,0.30
2014,11,16,02,57,0.30
2014,11,16,02,58,0.30
2014,11,16,02,59,0.30
2014,11,16,03,00,0.30
2014,11,16,03,01,0.30
2014,11,16,03,02,0.30
2014,11,16,03,03,0.30
2014,11,16,03,04,0.30
2014,11,16,03,05,0.30
2014,11,16,03,06,0.20
2014,11,16,03,07,0.20
2014,11,16,03,08,0.20
2014,11,16,03,09,0.20
2014,11,16,03,10,0.20
2014,11,16,03,11,0.20
2014,11,16,03,12,0.20
2014,11,16,03,13,0.20
2014,11,16,03,14,0.20
2014,11,16,03,15,0.20
2014,11,16,03,16,0.10
2014,11,16,03,17,0.10
2014,11,16,03,18,0.10
2014,11,16,03,19,0.10
2014,11,16,03,20,0.10
2014,11,16,03,21,0.10
2014,11,16,03,22,0.10
2014,11,16,03,23,0.10
2014,11,16,03,24,0.10
2014,11,16,03,25,0.10
2014,11,16,03,26,0.20
2014,11,16,03,27,0.20
2014,11,16,03,28,0.20
2014,11,16,03,29,0.20
2014,11,16,03,30,0.20
2014,11,16,03,31,0.20
2014,11,16,03,32,0.20
2014,11,16,03,33,0.20
2014,11,16,03,34,0.20
2014,11,16,03,35,0.20
2014,11,16,03,36,0.20
2014,11,16,03,37,0.20
2014,11,16,03,38,0.20
2014,11,16,03,39,0.20
2014,11,16,03,40,0.30
2014,11,16,03,41,0.30
2014,11,16,03,42,0.30
2014,11,16,03,43,0.30
2014,11,16,03,44,0.40
2014,11,16,03,45,0.40
2014,11,16,03,46,0.50
2014,11,16,03,47,0.60
2014,11,16,03,48,0.70
2014,11,16,03,49,0.70
2014,11,16,03,50,0.80
2014,11,16,03,51,0.80
2014,11,16,03,52,0.90
2014,11,16,03,53,0.90
2014,11,16,03,54,1.00
2014,11,16,03,55,1.00
2014,11,16,03,56,1.10
2014,11,16,03,57,1.10
2014,11,16,03,58,1.20
2014,11,16,03,59,1.20
2014,11,16,04,00,1.20
2014,11,16,04,01,1.30
2014,11,16,04,02,1.30
2014,11,16,04,03,1.30
2014,11,16,04,04,1.40
2014,11,16,04,05,1.40
2014,11,16,04,06,1.40
2014,11,16,04,07,1.40
2014,11,16,04,08,1.40
2014,11,16,04,09,1.50
2014,11,16,04,10,1.50
2014,11,16,04,11,1.50
2014,11,16,04,12,1.50
2014,11,16,04,13,1.50
2014,11,16,04,14,1.50
2014,11,16,04,15,1.50
2014,11,16,04,16,1.50
2014,11,16,04,17,1.50
2014,11,16,04,18,1.50
2014,11,16,04,19,1.50
2014,11,16,04,20,1.50
2014,11,16,04,21,1.40
2014,11,16,04,22,1.40
2014,11,16,04,23,1.40
2014,11,16,04,24,1.40
2014,11,16,04,25,1.40
2014,11,16,04,26,1.40
2014,11,16,04,27,1.40
2014,11,16,04,28,1.40
2014,11,16,04,29,1.40
2014,11,16,04,30,1.40
2014,11,16,04,31,1.40
2014,11,16,04,32,1.40
2014,11,16,04,33,1.40
2014,11,16,04,34,1.40
2014,11,16,04,35,1.50
2014,11,16,04,36,1.50
2014,11,16,04,37,1.50
2014,11,16,04,38,1.50
2014,11,16,04,39,1.50
2014,11,16,04,40,1.60
2014,11,16,04,41,1.60
2014,11,16,04,42,1.60
2014,11,16,04,43,1.60
2014,11,16,04,44,1.60
2014,11,16,04,45,1.60
2014,11,16,04,46,1.60
2014,11,16,04,47,1.60
2014,11,16,04,48,1.60
2014,11,16,04,49,1.60
2014,11,16,04,50,1.60
2014,11,16,04,51,1.60
2014,11,16,04,52,1.60
2014,11,16,04,53,1.60
2014,11,16,04,54,1.60
2014,11,16,04,55,1.60
2014,11,16,04,56,1.60
2014,11,16,04,57,1.60
2014,11,16,04,58,1.50
2014,11,16,04,59,1.50
2014,11,16,05,00,1.50
2014,11,16,05,01,1.50
2014,11,16,05,02,1.60
2014,11,16,05,03,1.60
2014,11,16,05,04,1.60
2014,11,16,05,05,1.60
2014,11,16,05,06,1.60
2014,11,16,05,07,1.60
2014,11,16,05,08,1.60
2014,11,16,05,09,1.60
2014,11,16,05,10,1.70
2014,11,16,05,11,1.70
2014,11,16,05,12,1.70
2014,11,16,05,13,1.70
2014,11,16,05,14,1.70
2014,11,16,05,15,1.70
2014,11,16,05,16,1.70
2014,11,16,05,17,1.80
2014,11,16,05,18,1.80
2014,11,16,05,19,1.80
2014,11,16,05,20,1.80
2014,11,16,05,21,1.80
2014,11,16,05,22,1.80
2014,11,16,05,23,1.80
2014,11,16,05,24,1.80
2014,11,16,05,25,1.80
2014,11,16,05,26,1.80
2014,11,16,05,27,1.80
2014,11,16,05,28,1.80
2014,11,16,05,29,1.70
2014,11,16,05,30,1.70
2014,11,16,05,31,1.70
2014,11,16,05,32,1.70
2014,11,16,05,33,1.70
2014,11,16,05,34,1.70
2014,11,16,05,35,1.70
2014,11,16,05,36,1.60
2014,11,16,05,37,1.60
2014,11,16,05,38,1.60
2014,11,16,05,39,1.60
2014,11,16,05,40,1.60
2014,11,16,05,41,1.60
2014,11,16,05,42,1.60
2014,11,16,05,43,1.60
2014,11,16,05,44,1.60
2014,11,16,05,45,1.60
2014,11,16,05,46,1.60
2014,11,16,05,47,1.60
2014,11,16,05,48,1.60
2014,11,16,05,49,1.60
2014,11,16,05,50,1.50
2014,11,16,05,51,1.50
2014,11,16,05,52,1.50
2014,11,16,05,53,1.50
2014,11,16,05,54,1.40
2014,11,16,05,55,1.40
2014,11,16,05,56,1.40
2014,11,16,05,57,1.40
2014,11,16,05,58,1.30
2014,11,16,05,59,1.30
2014,11,16,06,00,1.30
2014,11,16,06,01,1.30
2014,11,16,06,02,1.30
2014,11,16,06,03,1.20
2014,11,16,06,04,1.20
2014,11,16,06,05,1.20
2014,11,16,06,06,1.20
2014,11,16,06,07,1.20
2014,11,16,06,08,1.20
2014,11,16,06,09,1.20
2014,11,16,06,10,1.20
2014,11,16,06,11,1.10
2014,11,16,06,12,1.10
2014,11,16,06,13,1.10
2014,11,16,06,14,1.10
2014,11,16,06,15,1.10
2014,11,16,06,16,1.10
2014,11,16,06,17,1.10
2014,11,16,06,18,1.10
2014,11,16,06,19,1.10
2014,11,16,06,20,1.10
2014,11,16,06,21,1.00
2014,11,16,06,22,1.00
2014,11,16,06,23,1.00
2014,11,16,06,24,1.00
2014,11,16,06,25,0.90
2014,11,16,06,26,0.90
2014,11,16,06,27,0.90
2014,11,16,06,28,0.90
2014,11,16,06,29,0.90
2014,11,16,06,30,0.90
2014,11,16,06,31,0.90
2014,11,16,06,32,0.90
2014,11,16,06,33,0.90
2014,11,16,06,34,0.90
2014,11,16,07,58,1.30
2014,11,16,07,59,1.30
2014,11,16,08,00,1.40
2014,11,16,08,01,1.40
2014,11,16,08,02,1.50
2014,11,16,08,03,1.50
2014,11,16,08,04,1.60
2014,11,16,08,05,1.70
2014,11,16,08,06,1.70
2014,11,16,08,07,1.70
2014,11,16,08,08,1.80
2014,11,16,08,09,1.80
2014,11,16,08,10,1.90
2014,11,16,08,11,1.90
2014,11,16,08,12,2.00
2014,11,16,08,13,2.00
2014,11,16,08,14,2.10
2014,11,16,08,15,2.10
2014,11,16,08,16,2.20
2014,11,16,08,17,2.20
2014,11,16,08,18,2.30
2014,11,16,08,19,2.30
2014,11,16,08,20,2.40
2014,11,16,08,21,2.40
2014,11,16,08,22,2.50
2014,11,16,08,23,2.50
2014,11,16,08,24,2.60
2014,11,16,08,25,2.60
2014,11,16,08,26,2.60
2014,11,16,08,27,2.70
2014,11,16,08,28,2.70
2014,11,16,08,29,2.70
2014,11,16,08,30,2.80
2014,11,16,08,31,2.80
2014,11,16,08,32,2.80
2014,11,16,08,33,2.90
2014,11,16,08,34,2.90
2014,11,16,08,35,2.90
2014,11,16,08,36,3.00
2014,11,16,08,37,3.00
2014,11,16,08,38,3.00
2014,11,16,08,39,3.10
2014,11,16,08,40,3.10
2014,11,16,08,41,3.20
2014,11,16,08,42,3.30
2014,11,16,08,43,3.30
2014,11,16,08,44,3.40
2014,11,16,08,45,3.40
2014,11,16,08,46,3.50
2014,11,16,08,47,3.60
2014,11,16,08,48,3.60
2014,11,16,08,49,3.70
2014,11,16,08,50,3.70
2014,11,16,08,51,3.70
2014,11,16,08,52,3.80
2014,11,16,08,53,3.80
2014,11,16,08,54,3.80
2014,11,16,08,55,3.80
2014,11,16,08,56,3.90
2014,11,16,08,57,3.90
2014,11,16,08,58,3.90
2014,11,16,08,59,4.00
2014,11,16,09,00,4.00
2014,11,16,09,01,4.00
2014,11,16,09,02,4.00
2014,11,16,09,03,4.00
2014,11,16,09,04,4.00
2014,11,16,09,05,4.00
2014,11,16,09,06,4.00
2014,11,16,09,07,4.00
2014,11,16,09,08,4.10
2014,11,16,09,09,4.10
2014,11,16,09,10,4.10
2014,11,16,09,11,4.10
2014,11,16,09,12,4.10
2014,11,16,09,13,4.20
2014,11,16,09,14,4.20
2014,11,16,09,15,4.20
2014,11,16,09,16,4.30
2014,11,16,09,17,4.40
2014,11,16,09,18,4.40
2014,11,16,09,19,4.50
2014,11,16,09,20,4.60
2014,11,16,09,21,4.70
2014,11,16,09,22,4.80
2014,11,16,09,23,4.90
2014,11,16,09,24,5.00
2014,11,16,09,25,5.20
2014,11,16,09,26,5.30
2014,11,16,09,27,5.40
2014,11,16,09,28,5.50
2014,11,16,09,29,5.60
2014,11,16,09,30,5.70
2014,11,16,09,31,5.70
2014,11,16,09,32,5.70
2014,11,16,09,33,5.70
2014,11,16,09,34,5.70
2014,11,16,09,35,5.60
2014,11,16,09,36,5.50
2014,11,16,09,37,5.40
2014,11,16,09,38,5.30
2014,11,16,09,39,5.20
2014,11,16,09,40,5.10
2014,11,16,09,41,5.00
2014,11,16,09,42,5.00
2014,11,16,09,43,5.10
2014,11,16,09,44,5.10
2014,11,16,09,45,5.10
2014,11,16,09,46,5.10
2014,11,16,09,47,5.10
2014,11,16,09,48,5.10
2014,11,16,09,49,5.10
2014,11,16,09,50,5.20
2014,11,16,09,51,5.10
2014,11,16,09,52,5.10
2014,11,16,09,53,5.10
2014,11,16,09,54,5.00
2014,11,16,09,55,5.00
2014,11,16,09,56,4.90
2014,11,16,09,57,4.90
2014,11,16,09,58,4.90
2014,11,16,09,59,4.90
2014,11,16,10,00,4.90
2014,11,16,10,01,4.90
2014,11,16,10,02,4.90
2014,11,16,10,03,5.00
2014,11,16,10,04,5.00
2014,11,16,10,05,5.10
2014,11,16,10,06,5.10
2014,11,16,10,07,5.20
2014,11,16,10,08,5.20
2014,11,16,10,09,5.30
2014,11,16,10,10,5.30
2014,11,16,10,11,5.30
2014,11,16,10,12,5.30
2014,11,16,10,13,5.30
2014,11,16,10,14,5.30
2014,11,16,10,15,5.30
2014,11,16,10,16,5.30
2014,11,16,10,17,5.20
2014,11,16,10,18,5.20
2014,11,16,10,19,5.20
2014,11,16,10,20,5.20
2014,11,16,10,21,5.10
2014,11,16,10,22,5.10
2014,11,16,10,23,5.10
2014,11,16,10,24,5.00
2014,11,16,10,25,5.00
2014,11,16,10,26,5.00
2014,11,16,10,27,4.90
2014,11,16,10,28,5.00
2014,11,16,10,29,5.00
2014,11,16,10,30,5.10
2014,11,16,10,31,5.10
2014,11,16,10,32,5.20
2014,11,16,10,33,5.20
2014,11,16,10,34,5.20
2014,11,16,10,35,5.30
2014,11,16,10,36,5.30
2014,11,16,10,37,5.30
2014,11,16,10,38,5.30
2014,11,16,10,39,5.30
2014,11,16,10,40,5.30
2014,11,16,10,41,5.30
2014,11,16,10,42,5.30
2014,11,16,10,43,5.20
2014,11,16,10,44,5.20
2014,11,16,10,45,5.30
2014,11,16,10,46,5.30
2014,11,16,10,47,5.40
2014,11,16,10,48,5.50
2014,11,16,10,49,5.60
2014,11,16,10,50,5.70
2014,11,16,10,51,5.70
2014,11,16,10,52,5.70
2014,11,16,10,53,5.70
2014,11,16,10,54,5.70
2014,11,16,10,55,5.70
2014,11,16,10,56,5.80
2014,11,16,10,57,5.80
2014,11,16,10,58,5.80
2014,11,16,10,59,5.90
2014,11,16,11,00,5.90
2014,11,16,11,01,5.90
2014,11,16,11,02,5.80
2014,11,16,11,03,5.80
2014,11,16,11,04,5.80
2014,11,16,11,05,5.80
2014,11,16,11,06,5.80
2014,11,16,11,07,5.80
2014,11,16,11,08,5.80
2014,11,16,11,09,5.70
2014,11,16,11,10,5.70
2014,11,16,11,11,5.70
2014,11,16,11,12,5.70
2014,11,16,11,13,5.70
2014,11,16,11,14,5.70
2014,11,16,11,15,5.70
2014,11,16,11,16,5.70
2014,11,16,11,17,5.70
2014,11,16,11,18,5.70
2014,11,16,11,19,5.70
2014,11,16,11,20,5.80
2014,11,16,11,21,5.80
2014,11,16,11,22,5.80
2014,11,16,11,23,5.80
2014,11,16,11,24,5.80
2014,11,16,11,25,5.80
2014,11,16,11,26,5.80
2014,11,16,11,27,5.80
2014,11,16,11,28,5.80
2014,11,16,11,29,5.80
2014,11,16,11,30,5.80
2014,11,16,11,31,5.90
2014,11,16,11,32,5.90
2014,11,16,11,33,6.00
2014,11,16,11,34,6.00
2014,11,16,11,35,5.90
2014,11,16,11,36,5.90
2014,11,16,11,37,5.90
2014,11,16,11,38,5.90
2014,11,16,11,39,5.90
2014,11,16,11,40,5.80
2014,11,16,11,41,5.80
2014,11,16,11,42,5.80
2014,11,16,11,43,5.80
2014,11,16,11,44,5.80
2014,11,16,11,45,5.80
2014,11,16,11,46,5.90
2014,11,16,11,47,5.90
2014,11,16,11,48,5.90
2014,11,16,11,49,6.00
2014,11,16,11,50,6.10
2014,11,16,11,51,6.20
2014,11,16,11,52,6.20
2014,11,16,11,53,6.20
2014,11,16,11,54,6.20
2014,11,16,11,55,6.30
2014,11,16,11,56,6.30
2014,11,16,11,57,6.30
2014,11,16,11,58,6.30
2014,11,16,11,59,6.30
2014,11,16,12,00,6.30
2014,11,16,12,01,6.30
2014,11,16,12,02,6.30
2014,11,16,12,03,6.20
2014,11,16,12,04,6.20
2014,11,16,12,05,6.20
2014,11,16,12,06,6.10
2014,11,16,12,07,6.20
2014,11,16,12,08,6.20
2014,11,16,12,09,6.20
2014,11,16,12,10,6.20
2014,11,16,12,11,6.20
2014,11,16,12,12,6.20
2014,11,16,12,13,6.20
2014,11,16,12,14,6.20
2014,11,16,12,15,6.20
2014,11,16,12,16,6.20
2014,11,16,12,17,6.20
2014,11,16,12,18,6.20
2014,11,16,12,19,6.20
2014,11,16,12,20,6.20
2014,11,16,12,21,6.30
2014,11,16,12,22,6.30
2014,11,16,12,23,6.30
2014,11,16,12,24,6.40
2014,11,16,12,25,6.40
2014,11,16,12,26,6.50
2014,11,16,12,27,6.50
2014,11,16,12,28,6.60
2014,11,16,12,29,6.70
2014,11,16,12,30,6.80
2014,11,16,12,31,6.80
2014,11,16,12,32,6.80
2014,11,16,12,33,6.70
2014,11,16,12,34,6.70
2014,11,16,12,35,6.80
2014,11,16,12,36,6.80
2014,11,16,12,37,6.80
2014,11,16,12,38,6.80
2014,11,16,12,39,6.80
2014,11,16,12,40,6.80
2014,11,16,12,41,6.80
2014,11,16,12,42,6.80
2014,11,16,12,43,6.80
2014,11,16,12,44,6.80
2014,11,16,12,45,6.80
2014,11,16,12,46,6.80
2014,11,16,12,47,6.80
2014,11,16,12,48,6.80
2014,11,16,12,49,6.80
2014,11,16,12,50,6.80
2014,11,16,12,51,6.80
2014,11,16,12,52,6.80
2014,11,16,12,53,6.80
2014,11,16,12,54,6.80
2014,11,16,12,55,6.70
2014,11,16,12,56,6.70
2014,11,16,12,57,6.70
2014,11,16,12,58,6.70
2014,11,16,12,59,6.70
2014,11,16,13,00,6.70
2014,11,16,13,01,6.70
2014,11,16,13,02,6.60
2014,11,16,13,03,6.60
2014,11,16,13,04,6.60
2014,11,16,13,05,6.70
2014,11,16,13,06,6.70
2014,11,16,13,07,6.80
2014,11,16,13,08,6.80
2014,11,16,13,09,6.80
2014,11,16,13,10,6.80
2014,11,16,13,11,6.80
2014,11,16,13,12,6.80
2014,11,16,13,13,6.80
2014,11,16,13,14,6.80
2014,11,16,13,15,6.90
2014,11,16,13,16,7.00
2014,11,16,13,17,7.10
2014,11,16,13,18,7.20
2014,11,16,13,19,7.30
2014,11,16,13,20,7.30
2014,11,16,13,21,7.30
2014,11,16,13,22,7.30
2014,11,16,13,23,7.20
2014,11,16,13,24,7.20
2014,11,16,13,25,7.20
2014,11,16,13,26,7.20
2014,11,16,13,27,7.20
2014,11,16,13,28,7.20
2014,11,16,13,29,7.10
2014,11,16,13,30,7.10
2014,11,16,13,31,7.10
2014,11,16,13,32,7.10
2014,11,16,13,33,7.10
2014,11,16,13,34,7.00
2014,11,16,13,35,7.00
2014,11,16,13,36,7.00
2014,11,16,13,37,7.00
2014,11,16,13,38,7.00
2014,11,16,13,39,7.00
2014,11,16,13,40,7.00
2014,11,16,13,41,7.00
2014,11,16,13,42,7.00
2014,11,16,13,43,7.00
2014,11,16,13,44,7.00
2014,11,16,13,45,7.00
2014,11,16,13,46,7.00
2014,11,16,13,47,7.00
2014,11,16,13,48,6.90
2014,11,16,13,49,6.90
2014,11,16,13,50,6.90
2014,11,16,13,51,6.90
2014,11,16,13,52,7.00
2014,11,16,13,53,7.00
2014,11,16,13,54,7.00
2014,11,16,13,55,7.00
2014,11,16,13,56,7.00
2014,11,16,13,57,7.00
2014,11,16,13,58,7.00
2014,11,16,13,59,7.00
2014,11,16,14,00,7.00
2014,11,16,14,01,7.00
2014,11,16,14,02,7.00
2014,11,16,14,03,7.00
2014,11,16,14,04,7.00
2014,11,16,14,05,7.00
2014,11,16,14,06,7.00
2014,11,16,14,07,7.00
2014,11,16,14,08,6.90
2014,11,16,14,09,6.90
2014,11,16,14,10,6.90
2014,11,16,14,11,6.90
2014,11,16,14,12,6.90
2014,11,16,14,13,6.80
2014,11,16,14,14,6.80
2014,11,16,14,15,6.80
2014,11,16,14,16,6.90
2014,11,16,14,17,6.90
2014,11,16,14,18,6.90
2014,11,16,14,19,6.90
2014,11,16,14,20,6.90
2014,11,16,14,21,7.00
2014,11,16,14,22,7.00
2014,11,16,14,23,7.00
2014,11,16,14,24,7.10
2014,11,16,14,25,7.00
2014,11,16,14,26,7.00
2014,11,16,14,27,7.00
2014,11,16,14,28,7.00
2014,11,16,14,29,7.00
2014,11,16,14,30,7.00
2014,11,16,14,31,7.00
2014,11,16,14,32,7.00
2014,11,16,14,33,7.00
2014,11,16,14,34,7.00
2014,11,16,14,35,7.00
2014,11,16,14,36,7.10
2014,11,16,14,37,7.10
2014,11,16,14,38,7.10
2014,11,16,14,39,7.10
2014,11,16,14,40,7.20
2014,11,16,14,41,7.20
2014,11,16,14,42,7.20
2014,11,16,14,43,7.30
2014,11,16,14,44,7.30
2014,11,16,14,45,7.30
2014,11,16,14,46,7.30
2014,11,16,14,47,7.30
2014,11,16,14,48,7.30
2014,11,16,14,49,7.20
2014,11,16,14,50,7.20
2014,11,16,14,51,7.10
2014,11,16,14,52,7.10
2014,11,16,14,53,7.10
2014,11,16,14,54,7.10
2014,11,16,14,55,7.00
2014,11,16,14,56,7.00
2014,11,16,14,57,7.00
2014,11,16,14,58,7.00
2014,11,16,14,59,7.00
2014,11,16,15,00,6.90
2014,11,16,15,01,6.90
2014,11,16,15,02,6.90
2014,11,16,15,03,6.90
2014,11,16,15,04,6.90
2014,11,16,15,05,6.80
2014,11,16,15,06,6.80
2014,11,16,15,07,6.80
2014,11,16,15,08,6.80
2014,11,16,15,09,6.80
2014,11,16,15,10,6.80
2014,11,16,15,11,6.80
2014,11,16,15,12,6.80
2014,11,16,15,13,6.80
2014,11,16,15,14,6.80
2014,11,16,15,15,6.80
2014,11,16,15,16,6.90
2014,11,16,15,17,6.90
2014,11,16,15,18,6.90
2014,11,16,15,19,6.90
2014,11,16,15,20,6.90
2014,11,16,15,21,6.90
2014,11,16,15,22,6.90
2014,11,16,15,23,6.90
2014,11,16,15,24,6.90
2014,11,16,15,25,6.90
2014,11,16,15,26,6.80
2014,11,16,15,27,6.80
2014,11,16,15,28,6.80
2014,11,16,15,29,6.80
2014,11,16,15,30,6.80
2014,11,16,15,31,6.80
2014,11,16,15,32,6.80
2014,11,16,15,33,6.70
2014,11,16,15,34,6.70
2014,11,16,15,35,6.70
2014,11,16,15,36,6.70
2014,11,16,15,37,6.70
2014,11,16,15,38,6.70
2014,11,16,15,39,6.70
2014,11,16,15,40,6.60
2014,11,16,15,41,6.60
2014,11,16,15,42,6.60
2014,11,16,15,43,6.60
2014,11,16,15,44,6.60
2014,11,16,15,45,6.70
2014,11,16,15,46,6.70
2014,11,16,15,47,6.70
2014,11,16,15,48,6.70
2014,11,16,15,49,6.70
2014,11,16,15,50,6.70
2014,11,16,15,51,6.70
2014,11,16,15,52,6.60
2014,11,16,15,53,6.60
2014,11,16,15,54,6.60
2014,11,16,15,55,6.60
2014,11,16,15,56,6.60
2014,11,16,15,57,6.50
2014,11,16,15,58,6.50
2014,11,16,15,59,6.50
2014,11,16,16,00,6.40
2014,11,16,16,01,6.40
2014,11,16,16,02,6.40
2014,11,16,16,03,6.40
2014,11,16,16,04,6.40
2014,11,16,16,05,6.40
2014,11,16,16,06,6.40
2014,11,16,16,07,6.40
2014,11,16,16,08,6.30
2014,11,16,16,09,6.30
2014,11,16,16,10,6.30
2014,11,16,16,11,6.30
2014,11,16,16,12,6.30
2014,11,16,16,13,6.30
2014,11,16,16,14,6.30
2014,11,16,16,15,6.20
2014,11,16,16,16,6.20
2014,11,16,16,17,6.20
2014,11,16,16,18,6.20
2014,11,16,16,19,6.10
2014,11,16,16,20,6.10
2014,11,16,16,21,6.10
2014,11,16,16,22,6.00
2014,11,16,16,23,6.00
2014,11,16,16,24,6.00
2014,11,16,16,25,5.90
2014,11,16,16,26,5.90
2014,11,16,16,27,5.80
2014,11,16,16,28,5.80
2014,11,16,16,29,5.80
2014,11,16,16,30,5.80
2014,11,16,16,31,5.70
2014,11,16,16,32,5.70
2014,11,16,16,33,5.70
2014,11,16,16,34,5.70
2014,11,16,16,35,5.60
2014,11,16,16,36,5.60
2014,11,16,16,37,5.60
2014,11,16,16,38,5.50
2014,11,16,16,39,5.50
2014,11,16,16,40,5.50
2014,11,16,16,41,5.40
2014,11,16,16,42,5.40
2014,11,16,16,43,5.30
2014,11,16,16,44,5.30
2014,11,16,16,45,5.30
2014,11,16,16,46,5.30
2014,11,16,16,47,5.30
2014,11,16,16,48,5.30
2014,11,16,16,49,5.20
2014,11,16,16,50,5.20
2014,11,16,16,51,5.20
2014,11,16,16,52,5.20
2014,11,16,16,53,5.20
2014,11,16,16,54,5.10
2014,11,16,16,55,5.10
2014,11,16,16,56,5.10
2014,11,16,16,57,5.10
2014,11,16,16,58,5.10
2014,11,16,16,59,5.10
2014,11,16,17,00,5.10
2014,11,16,17,01,5.10
2014,11,16,17,02,5.00
2014,11,16,17,03,5.00
2014,11,16,17,04,5.00
2014,11,16,17,05,5.00
2014,11,16,17,06,5.00
2014,11,16,17,07,4.90
2014,11,16,17,08,4.90
2014,11,16,17,09,4.90
2014,11,16,17,10,4.90
2014,11,16,17,11,4.90
2014,11,16,17,12,4.90
2014,11,16,17,13,4.90
2014,11,16,17,14,4.90
2014,11,16,17,15,4.90
2014,11,16,17,16,4.80
2014,11,16,17,17,4.80
2014,11,16,17,18,4.80
2014,11,16,17,19,4.80
2014,11,16,17,20,4.80
2014,11,16,17,21,4.80
2014,11,16,17,22,4.70
2014,11,16,17,23,4.70
2014,11,16,17,24,4.70
2014,11,16,17,25,4.70
2014,11,16,17,26,4.70
2014,11,16,17,27,4.70
2014,11,16,17,28,4.70
2014,11,16,17,29,4.60
2014,11,16,17,30,4.60
2014,11,16,17,31,4.60
2014,11,16,17,32,4.60
2014,11,16,17,33,4.60
2014,11,16,17,34,4.60
2014,11,16,17,35,4.60
2014,11,16,17,36,4.60
2014,11,16,17,37,4.60
2014,11,16,17,38,4.60
2014,11,16,17,39,4.60
2014,11,16,17,40,4.60
2014,11,16,17,41,4.60
2014,11,16,17,42,4.60
2014,11,16,17,43,4.60
2014,11,16,17,44,4.60
2014,11,16,17,45,4.60
2014,11,16,17,46,4.60
2014,11,16,17,47,4.60
2014,11,16,17,48,4.60
2014,11,16,17,49,4.60
2014,11,16,17,50,4.60
2014,11,16,17,51,4.60
2014,11,16,17,52,4.60
2014,11,16,17,53,4.60
2014,11,16,17,54,4.60
2014,11,16,17,55,4.60
2014,11,16,17,56,4.60
2014,11,16,17,57,4.60
2014,11,16,17,58,4.60
2014,11,16,17,59,4.60
2014,11,16,18,00,4.60
2014,11,16,18,01,4.60
2014,11,16,18,02,4.60
2014,11,16,18,03,4.60
2014,11,16,18,04,4.60
2014,11,16,18,05,4.60
2014,11,16,18,06,4.60
2014,11,16,18,07,4.60
2014,11,16,18,08,4.60
2014,11,16,18,09,4.60
2014,11,16,18,10,4.60
2014,11,16,18,11,4.60
2014,11,16,18,12,4.60
2014,11,16,18,13,4.60
2014,11,16,18,14,4.60
2014,11,16,18,15,4.60
2014,11,16,18,16,4.60
2014,11,16,18,17,4.60
2014,11,16,18,18,4.60
2014,11,16,18,19,4.50
2014,11,16,18,20,4.50
2014,11,16,18,21,4.50
2014,11,16,18,22,4.50
2014,11,16,18,23,4.50
2014,11,16,18,24,4.50
2014,11,16,18,25,4.50
2014,11,16,18,26,4.50
2014,11,16,18,27,4.40
2014,11,16,18,28,4.40
2014,11,16,18,29,4.40
2014,11,16,18,30,4.40
2014,11,16,18,31,4.40
2014,11,16,18,32,4.40
2014,11,16,18,33,4.40
2014,11,16,18,34,4.40
2014,11,16,18,35,4.40
2014,11,16,18,36,4.40
2014,11,16,18,37,4.40
2014,11,16,18,38,4.30
2014,11,16,18,39,4.30
2014,11,16,18,40,4.30
2014,11,16,18,41,4.30
2014,11,16,18,42,4.30
2014,11,16,18,43,4.30
2014,11,16,18,44,4.30
2014,11,16,18,45,4.30
2014,11,16,18,46,4.30
2014,11,16,18,47,4.30
2014,11,16,18,48,4.30
2014,11,16,18,49,4.30
2014,11,16,18,50,4.30
2014,11,16,18,51,4.30
2014,11,16,18,52,4.20
2014,11,16,18,53,4.20
2014,11,16,18,54,4.20
2014,11,16,18,55,4.20
2014,11,16,18,56,4.20
2014,11,16,18,57,4.20
2014,11,16,18,58,4.20
2014,11,16,18,59,4.20
2014,11,16,19,00,4.20
2014,11,16,19,01,4.20
2014,11,16,19,02,4.20
2014,11,16,19,03,4.10
2014,11,16,19,04,4.10
2014,11,16,19,05,4.10
2014,11,16,19,06,4.10
2014,11,16,19,07,4.10
2014,11,16,19,08,4.10
2014,11,16,19,09,4.10
2014,11,16,19,10,4.10
2014,11,16,19,11,4.10
2014,11,16,19,12,4.00
2014,11,16,19,13,4.00
2014,11,16,19,14,4.00
2014,11,16,19,15,4.00
2014,11,16,19,16,4.00
2014,11,16,19,17,4.00
2014,11,16,19,18,3.90
2014,11,16,19,19,3.90
2014,11,16,19,20,3.90
2014,11,16,19,21,3.90
2014,11,16,19,22,3.90